NORTHEAST SUFFOLK  -  Winter Weather Advisory Winter Weather Advisory     Winter Weather Advisory Winter Weather Advisory        NORTHERN NASSAU  -  Winter Weather Advisory Winter Weather Advisory        NORTHWEST SUFFOLK  -  Winter Weather Advisory Winter Weather Advisory     Winter Weather Advisory Winter Weather Advisory        SOUTHEAST SUFFOLK  -  Winter Weather Advisory Winter Weather Advisory     Winter Weather Advisory Winter Weather Advisory        SOUTHERN NASSAU  -  Winter Weather Advisory Winter Weather Advisory        SOUTHWEST SUFFOLK  -  Winter Weather Advisory Winter Weather Advisory     Winter Weather Advisory Winter Weather Advisory      

Active alerts

Northern Nassau
  Details for Northern Nassau Winter Weather Advisory
Southern Nassau
  Details for Southern Nassau Winter Weather Advisory
Northwest Suffolk
  Details for Northwest Suffolk Winter Weather Advisory  +1 additional alert
Southwest Suffolk
  Details for Southwest Suffolk Winter Weather Advisory  +1 additional alert
Northeast Suffolk
  Details for Northeast Suffolk Winter Weather Advisory  +1 additional alert
Southeast Suffolk
  Details for Southeast Suffolk Winter Weather Advisory  +1 additional alert


WXM80 ListenWXM80 Stop

You find our weather info also at:

UK Metoffice

WeatherCloud

Weather Underground

Northeastern Weather Network

AWEKAS

Citizen Weather Observer Program (CWOP)

HAMweather, WeatherForYou, PWS Weather


Weather Underground History page Text

Daily Summary for April 26, 2016 Units:  English    Metric   Both
« Previous Day
Next Day »
Daily Weekly Monthly Yearly Custom
  High: Low: Average:
Temperature: 53.3 °F 45.1 °F 49.4 °F
Dew Point: 51.9 °F 41.3 °F 47.2 °F
Humidity: 97 % 82 % 92 %
Wind Speed: 12.0 mph 0.0 mph 5.3 mph
Wind Gust: 19.6 mph - -
Wind:- - ENE
Pressure: 29.86 in 29.66 in -
Precipitation: 0.39 in    
Historical Graphs
 
 
Tabular Data for April 26, 2016
Time Temperature Dew Point Pressure Wind Wind Speed Wind Gust Humidity Rainfall Rate (Hourly)
00:00 53.3 °F 47.9 °F 29.85 in Calm     82 % 0.00 in
00:05 53.3 °F 47.9 °F 29.84 in Calm     82 % 0.00 in
00:10 53.3 °F 48.3 °F 29.84 in Calm     83 % 0.00 in
00:20 53.1 °F 48.1 °F 29.85 in Calm     83 % 0.00 in
00:25 53.0 °F 48.3 °F 29.85 in Calm   1.2 mph 84 % 0.00 in
00:30 53.0 °F 48.3 °F 29.85 in Calm     84 % 0.00 in
00:36 52.8 °F 48.1 °F 29.84 in Calm   1.2 mph 84 % 0.00 in
00:41 52.8 °F 48.4 °F 29.84 in Calm     85 % 0.00 in
00:46 52.7 °F 48.3 °F 29.84 in Calm     85 % 0.00 in
00:51 52.6 °F 48.2 °F 29.84 in Calm     85 % 0.00 in
00:56 52.6 °F 47.9 °F 29.84 in Calm     84 % 0.00 in
01:01 52.5 °F 47.8 °F 29.84 in North 0.1 mph 1.0 mph 84 % 0.00 in
01:06 52.4 °F 48.0 °F 29.83 in Calm   1.2 mph 85 % 0.00 in
01:11 52.3 °F 48.2 °F 29.82 in Calm     86 % 0.00 in
01:16 52.2 °F 48.1 °F 29.81 in Calm   1.2 mph 86 % 0.00 in
01:21 52.2 °F 48.1 °F 29.81 in North 0.4 mph 1.0 mph 86 % 0.00 in
01:27 52.1 °F 48.3 °F 29.81 in North 0.2 mph 1.2 mph 87 % 0.00 in
01:32 52.0 °F 48.3 °F 29.80 in North 0.8 mph 2.3 mph 87 % 0.00 in
01:37 52.0 °F 48.3 °F 29.80 in North 1.5 mph 2.3 mph 87 % 0.00 in
01:42 52.1 °F 48.7 °F 29.80 in North 1.4 mph 2.3 mph 88 % 0.00 in
01:47 52.1 °F 48.7 °F 29.79 in North 1.7 mph 2.3 mph 88 % 0.00 in
01:52 52.1 °F 48.7 °F 29.79 in North 1.1 mph 2.3 mph 88 % 0.00 in
01:57 52.2 °F 48.8 °F 29.80 in North 0.2 mph 1.2 mph 88 % 0.00 in
02:02 52.2 °F 48.8 °F 29.79 in North 0.7 mph 2.3 mph 88 % 0.00 in
02:07 52.2 °F 48.8 °F 29.79 in North 1.1 mph 2.3 mph 88 % 0.00 in
02:12 52.3 °F 49.2 °F 29.78 in NNE 0.9 mph 2.3 mph 89 % 0.00 in
02:18 52.3 °F 49.2 °F 29.78 in NNE 0.6 mph 1.2 mph 89 % 0.00 in
02:23 52.3 °F 49.2 °F 29.78 in NE 1.9 mph 3.5 mph 89 % 0.00 in
02:28 52.3 °F 49.2 °F 29.78 in NE 1.3 mph 2.3 mph 89 % 0.00 in
02:33 52.3 °F 49.5 °F 29.78 in NE 1.9 mph 3.5 mph 90 % 0.00 in
02:38 52.4 °F 49.6 °F 29.78 in NE 2.0 mph 3.5 mph 90 % 0.00 in
02:43 52.4 °F 49.3 °F 29.78 in ENE 3.4 mph 3.5 mph 89 % 0.00 in
02:48 52.5 °F 49.7 °F 29.78 in ENE 3.9 mph 6.9 mph 90 % 0.00 in
02:53 52.6 °F 49.4 °F 29.78 in ENE 4.9 mph 8.1 mph 89 % 0.00 in
02:58 52.6 °F 49.4 °F 29.77 in ENE 6.1 mph 8.1 mph 89 % 0.00 in
03:03 52.6 °F 49.4 °F 29.76 in NE 2.1 mph 3.5 mph 89 % 0.00 in
03:09 52.6 °F 49.4 °F 29.76 in East 2.3 mph 3.5 mph 89 % 0.00 in
03:14 52.6 °F 49.4 °F 29.75 in ENE 2.6 mph 3.5 mph 89 % 0.00 in
03:19 52.6 °F 49.4 °F 29.75 in East 2.9 mph 6.0 mph 89 % 0.00 in
03:24 52.6 °F 49.4 °F 29.75 in ENE 3.3 mph 4.6 mph 89 % 0.00 in
03:29 52.5 °F 49.7 °F 29.75 in NE 6.9 mph 9.2 mph 90 % 0.00 in
03:34 52.4 °F 49.6 °F 29.75 in East 6.3 mph 9.0 mph 90 % 0.00 in
03:39 52.3 °F 49.5 °F 29.76 in ENE 6.8 mph 9.2 mph 90 % 0.00 in
03:44 52.2 °F 49.4 °F 29.80 in NE 3.6 mph 5.8 mph 90 % 0.00 in
03:49 52.2 °F 49.7 °F 29.81 in NNE 5.2 mph 11.5 mph 91 % 0.00 in
03:54 52.1 °F 49.6 °F 29.80 in NNE 8.5 mph 10.4 mph 91 % 0.02 in
04:00 52.0 °F 49.7 °F 29.79 in NE 2.6 mph 8.1 mph 92 % 0.05 in
04:05 51.8 °F 49.5 °F 29.78 in ENE 9.1 mph 11.0 mph 92 % 0.06 in
04:10 51.5 °F 49.5 °F 29.76 in ENE 5.1 mph 11.5 mph 93 % 0.10 in
04:15 51.4 °F 49.4 °F 29.76 in NNE 3.7 mph 9.2 mph 93 % 0.12 in
04:20 51.3 °F 49.3 °F 29.84 in NNW 1.1 mph 9.2 mph 93 % 0.14 in
04:25 51.2 °F 49.2 °F 29.78 in ENE 7.6 mph 10.4 mph 93 % 0.27 in
04:30 50.8 °F 49.1 °F 29.77 in East 5.2 mph 11.5 mph 94 % 0.29 in
04:35 50.7 °F 49.0 °F 29.76 in ESE 5.9 mph 8.0 mph 94 % 0.31 in
04:40 50.6 °F 48.9 °F 29.78 in East 1.2 mph 5.8 mph 94 % 0.32 in
04:45 50.5 °F 49.1 °F 29.78 in East 3.7 mph 3.7 mph 95 % 0.33 in
04:51 50.5 °F 49.1 °F 29.74 in ENE 5.7 mph 7.0 mph 95 % 0.34 in
04:56 50.4 °F 49.0 °F 29.73 in East 4.7 mph 5.8 mph 95 % 0.31 in
05:01 50.4 °F 49.0 °F 29.74 in East 4.5 mph 9.2 mph 95 % 0.29 in
05:06 50.3 °F 48.9 °F 29.73 in East 6.0 mph 8.1 mph 95 % 0.27 in
05:11 50.3 °F 48.9 °F 29.73 in South 1.6 mph 3.5 mph 95 % 0.24 in
05:16 50.4 °F 49.3 °F 29.72 in SW 0.7 mph 3.0 mph 96 % 0.22 in
05:21 50.4 °F 49.3 °F 29.71 in East 3.6 mph 6.9 mph 96 % 0.20 in
05:26 50.5 °F 49.4 °F 29.72 in SE 3.3 mph 7.0 mph 96 % 0.08 in
05:31 50.6 °F 49.5 °F 29.73 in SE 2.0 mph 5.0 mph 96 % 0.06 in
05:36 50.6 °F 49.5 °F 29.73 in SE 2.9 mph 3.5 mph 96 % 0.05 in
05:42 50.7 °F 49.6 °F 29.72 in ESE 1.6 mph 6.9 mph 96 % 0.04 in
05:47 50.8 °F 49.7 °F 29.73 in ESE 0.9 mph 3.5 mph 96 % 0.03 in
05:52 50.9 °F 49.8 °F 29.73 in ESE 0.9 mph 3.5 mph 96 % 0.02 in
05:57 50.9 °F 49.8 °F 29.73 in ESE 0.9 mph 2.0 mph 96 % 0.02 in
06:02 51.0 °F 49.9 °F 29.73 in ESE 0.3 mph 2.3 mph 96 % 0.02 in
06:07 51.0 °F 49.9 °F 29.74 in Calm   1.2 mph 96 % 0.02 in
06:12 51.0 °F 49.9 °F 29.74 in ESE 0.5 mph 2.0 mph 96 % 0.01 in
06:17 51.1 °F 50.0 °F 29.74 in Calm     96 % 0.01 in
06:27 51.2 °F 50.1 °F 29.74 in ENE 1.3 mph 3.5 mph 96 % 0.00 in
06:33 51.2 °F 50.1 °F 29.74 in ENE 2.1 mph 3.5 mph 96 % 0.00 in
06:38 51.2 °F 50.1 °F 29.74 in Calm   1.2 mph 96 % 0.00 in
06:43 51.2 °F 50.1 °F 29.74 in ENE 0.1 mph 2.0 mph 96 % 0.00 in
06:48 51.2 °F 50.1 °F 29.74 in ENE 2.1 mph 3.5 mph 96 % 0.00 in
06:53 51.2 °F 50.4 °F 29.74 in ENE 1.7 mph 3.5 mph 97 % 0.00 in
06:58 51.3 °F 50.5 °F 29.74 in ENE 0.8 mph 2.3 mph 97 % 0.00 in
07:03 51.3 °F 50.5 °F 29.73 in ENE 0.9 mph 2.3 mph 97 % 0.00 in
07:08 51.4 °F 50.6 °F 29.74 in ENE 1.4 mph 2.3 mph 97 % 0.00 in
07:13 51.5 °F 50.7 °F 29.74 in ENE 1.2 mph 2.3 mph 97 % 0.00 in
07:18 51.6 °F 50.8 °F 29.74 in ENE 1.4 mph 4.6 mph 97 % 0.00 in
07:24 51.6 °F 50.8 °F 29.74 in ENE 0.4 mph 2.3 mph 97 % 0.00 in
07:29 51.7 °F 50.9 °F 29.73 in ENE 1.8 mph 3.5 mph 97 % 0.00 in
07:34 51.7 °F 50.9 °F 29.73 in ENE 2.3 mph 3.5 mph 97 % 0.00 in
07:39 51.8 °F 51.0 °F 29.73 in ENE 1.6 mph 3.5 mph 97 % 0.00 in
07:44 51.8 °F 51.0 °F 29.73 in ENE 4.0 mph 5.8 mph 97 % 0.00 in
07:49 51.7 °F 50.9 °F 29.73 in ENE 3.7 mph 5.0 mph 97 % 0.00 in
07:54 51.8 °F 51.0 °F 29.73 in ENE 2.4 mph 4.0 mph 97 % 0.00 in
07:59 51.8 °F 51.0 °F 29.73 in ENE 3.4 mph 6.9 mph 97 % 0.00 in
08:09 52.0 °F 51.2 °F 29.72 in ENE 1.8 mph 5.0 mph 97 % 0.00 in
08:15 52.0 °F 51.2 °F 29.72 in ENE 1.4 mph 2.0 mph 97 % 0.00 in
08:20 52.1 °F 51.3 °F 29.72 in ENE 1.6 mph 3.5 mph 97 % 0.00 in
08:25 52.2 °F 51.4 °F 29.72 in ENE 1.3 mph 3.5 mph 97 % 0.00 in
08:30 52.2 °F 51.4 °F 29.72 in ENE 2.3 mph 4.0 mph 97 % 0.00 in
08:35 52.2 °F 51.4 °F 29.72 in ENE 1.4 mph 2.3 mph 97 % 0.00 in
08:40 52.3 °F 51.5 °F 29.71 in ENE 1.9 mph 3.5 mph 97 % 0.00 in
08:45 52.3 °F 51.5 °F 29.71 in East 2.0 mph 3.5 mph 97 % 0.00 in
08:50 52.5 °F 51.7 °F 29.70 in East 2.1 mph 3.5 mph 97 % 0.00 in
08:55 52.6 °F 51.8 °F 29.70 in East 1.4 mph 2.3 mph 97 % 0.00 in
09:00 52.6 °F 51.8 °F 29.70 in ENE 2.3 mph 4.0 mph 97 % 0.00 in
09:06 52.6 °F 51.8 °F 29.70 in ENE 2.0 mph 3.5 mph 97 % 0.00 in
09:11 52.7 °F 51.9 °F 29.69 in ENE 4.3 mph 7.0 mph 97 % 0.00 in
09:16 52.6 °F 51.8 °F 29.69 in ENE 2.4 mph 5.0 mph 97 % 0.00 in
09:21 52.6 °F 51.8 °F 29.69 in NE 3.7 mph 6.0 mph 97 % 0.00 in
09:26 52.5 °F 51.7 °F 29.69 in ENE 4.4 mph 8.1 mph 97 % 0.00 in
09:31 52.4 °F 51.6 °F 29.69 in ENE 4.5 mph 8.0 mph 97 % 0.00 in
09:36 52.4 °F 51.6 °F 29.68 in ENE 6.4 mph 8.1 mph 97 % 0.00 in
09:41 52.4 °F 51.3 °F 29.68 in ESE 4.1 mph 5.8 mph 96 % 0.00 in
09:46 52.3 °F 51.2 °F 29.68 in ENE 4.3 mph 8.1 mph 96 % 0.00 in
09:51 52.2 °F 51.1 °F 29.67 in ENE 4.0 mph 8.1 mph 96 % 0.00 in
10:02 52.3 °F 51.2 °F 29.68 in ENE 5.0 mph 8.1 mph 96 % 0.00 in
10:07 52.3 °F 51.2 °F 29.68 in ENE 7.1 mph 9.2 mph 96 % 0.00 in
10:12 52.4 °F 51.3 °F 29.68 in NE 5.6 mph 10.4 mph 96 % 0.00 in
10:17 52.2 °F 51.1 °F 29.67 in ENE 6.2 mph 9.2 mph 96 % 0.00 in
10:22 52.0 °F 50.9 °F 29.67 in ENE 4.3 mph 9.2 mph 96 % 0.00 in
10:27 52.0 °F 50.9 °F 29.67 in ENE 6.8 mph 10.4 mph 96 % 0.00 in
10:32 51.9 °F 50.5 °F 29.67 in ENE 6.8 mph 8.1 mph 95 % 0.00 in
10:37 51.7 °F 50.3 °F 29.67 in NNE 6.4 mph 10.4 mph 95 % 0.00 in
10:43 51.6 °F 50.2 °F 29.67 in ENE 5.8 mph 10.4 mph 95 % 0.00 in
10:48 51.4 °F 50.0 °F 29.67 in ENE 5.4 mph 11.5 mph 95 % 0.00 in
10:58 51.0 °F 49.6 °F 29.68 in ENE 3.6 mph 7.0 mph 95 % 0.00 in
11:03 50.8 °F 49.4 °F 29.68 in ENE 4.1 mph 9.0 mph 95 % 0.00 in
11:08 50.4 °F 48.7 °F 29.68 in East 7.2 mph 9.2 mph 94 % 0.00 in
11:13 49.9 °F 48.2 °F 29.68 in NE 8.5 mph 11.5 mph 94 % 0.00 in
11:18 49.6 °F 47.9 °F 29.68 in ENE 9.3 mph 12.7 mph 94 % 0.00 in
11:23 49.2 °F 47.5 °F 29.68 in ENE 10.4 mph 15.0 mph 94 % 0.00 in
11:28 48.9 °F 47.2 °F 29.68 in ENE 8.8 mph 15.0 mph 94 % 0.00 in
11:34 48.7 °F 47.1 °F 29.68 in East 10.1 mph 13.8 mph 94 % 0.00 in
11:39 48.4 °F 46.8 °F 29.68 in East 10.4 mph 17.3 mph 94 % 0.00 in
11:44 48.2 °F 46.6 °F 29.67 in ENE 11.3 mph 19.6 mph 94 % 0.00 in
11:49 48.1 °F 46.5 °F 29.68 in East 8.6 mph 12.7 mph 94 % 0.00 in
11:54 48.0 °F 46.4 °F 29.67 in ENE 11.4 mph 14.0 mph 94 % 0.00 in
11:59 48.1 °F 46.7 °F 29.66 in ENE 6.7 mph 9.2 mph 95 % 0.00 in
12:04 48.3 °F 46.9 °F 29.66 in ENE 6.5 mph 8.1 mph 95 % 0.00 in
12:09 48.6 °F 47.2 °F 29.66 in ENE 6.2 mph 9.2 mph 95 % 0.00 in
12:14 48.7 °F 47.3 °F 29.66 in East 3.7 mph 6.9 mph 95 % 0.00 in
12:19 48.8 °F 47.4 °F 29.66 in East 4.7 mph 6.9 mph 95 % 0.00 in
12:25 48.9 °F 47.5 °F 29.66 in East 3.8 mph 5.8 mph 95 % 0.00 in
12:30 49.0 °F 47.9 °F 29.66 in East 4.6 mph 6.9 mph 96 % 0.00 in
12:35 49.2 °F 48.1 °F 29.66 in East 4.7 mph 6.9 mph 96 % 0.00 in
12:40 49.2 °F 47.8 °F 29.66 in ENE 4.8 mph 5.8 mph 95 % 0.00 in
12:45 49.0 °F 47.6 °F 29.66 in ENE 8.6 mph 12.0 mph 95 % 0.00 in
12:50 48.8 °F 47.4 °F 29.66 in ENE 9.5 mph 13.8 mph 95 % 0.00 in
12:55 48.6 °F 47.2 °F 29.66 in ENE 9.1 mph 12.7 mph 95 % 0.00 in
13:00 48.6 °F 47.2 °F 29.67 in NE 10.6 mph 14.0 mph 95 % 0.00 in
13:05 48.6 °F 47.2 °F 29.67 in ENE 10.2 mph 13.8 mph 95 % 0.00 in
13:10 48.7 °F 47.3 °F 29.67 in ENE 11.8 mph 13.8 mph 95 % 0.00 in
13:16 48.7 °F 47.3 °F 29.66 in East 10.7 mph 12.7 mph 95 % 0.00 in
13:21 48.7 °F 47.3 °F 29.66 in ENE 9.6 mph 13.8 mph 95 % 0.00 in
13:26 48.8 °F 47.4 °F 29.66 in ENE 9.6 mph 17.3 mph 95 % 0.00 in
13:31 48.8 °F 47.4 °F 29.66 in East 7.3 mph 11.0 mph 95 % 0.00 in
13:36 48.8 °F 47.4 °F 29.66 in NE 10.3 mph 13.8 mph 95 % 0.00 in
13:41 49.0 °F 47.6 °F 29.66 in ENE 9.5 mph 16.1 mph 95 % 0.00 in
13:46 49.0 °F 47.3 °F 29.67 in NE 8.2 mph 11.5 mph 94 % 0.00 in
13:51 49.0 °F 47.3 °F 29.66 in ENE 9.5 mph 11.5 mph 94 % 0.00 in
13:56 49.0 °F 47.3 °F 29.67 in ENE 8.9 mph 11.5 mph 94 % 0.00 in
14:01 49.1 °F 47.4 °F 29.67 in ENE 5.1 mph 10.4 mph 94 % 0.00 in
14:07 49.4 °F 48.0 °F 29.66 in East 6.2 mph 10.4 mph 95 % 0.00 in
14:12 49.6 °F 48.2 °F 29.67 in East 3.2 mph 6.9 mph 95 % 0.00 in
14:17 49.6 °F 47.9 °F 29.67 in East 3.7 mph 8.1 mph 94 % 0.00 in
14:22 49.7 °F 48.0 °F 29.67 in East 5.7 mph 8.1 mph 94 % 0.00 in
14:27 49.5 °F 47.8 °F 29.67 in ENE 4.6 mph 6.9 mph 94 % 0.00 in
14:32 49.5 °F 47.6 °F 29.67 in ENE 5.5 mph 10.0 mph 93 % 0.00 in
14:37 49.6 °F 47.9 °F 29.67 in NE 7.2 mph 10.4 mph 94 % 0.00 in
14:42 49.4 °F 47.5 °F 29.67 in East 7.3 mph 10.4 mph 93 % 0.00 in
14:47 49.3 °F 47.4 °F 29.66 in ENE 8.1 mph 10.4 mph 93 % 0.00 in
14:52 49.4 °F 47.5 °F 29.67 in ENE 4.9 mph 8.1 mph 93 % 0.00 in
14:57 49.5 °F 47.6 °F 29.67 in East 6.2 mph 11.5 mph 93 % 0.00 in
15:02 49.3 °F 47.1 °F 29.67 in East 6.1 mph 11.5 mph 92 % 0.00 in
15:08 49.2 °F 47.0 °F 29.67 in ENE 4.8 mph 6.9 mph 92 % 0.00 in
15:13 49.1 °F 46.9 °F 29.67 in ENE 8.3 mph 13.8 mph 92 % 0.00 in
15:18 48.8 °F 46.6 °F 29.67 in East 6.4 mph 11.5 mph 92 % 0.00 in
15:23 48.7 °F 46.5 °F 29.67 in NE 7.4 mph 13.8 mph 92 % 0.00 in
15:28 48.7 °F 46.5 °F 29.67 in ENE 9.2 mph 12.7 mph 92 % 0.00 in
15:33 48.8 °F 46.6 °F 29.67 in East 10.0 mph 11.5 mph 92 % 0.00 in
15:38 48.8 °F 46.6 °F 29.67 in East 12.0 mph 13.8 mph 92 % 0.00 in
15:43 48.5 °F 46.0 °F 29.67 in NNE 10.1 mph 13.8 mph 91 % 0.00 in
15:48 48.3 °F 45.8 °F 29.67 in ENE 10.2 mph 12.0 mph 91 % 0.00 in
15:53 48.1 °F 45.6 °F 29.68 in ENE 9.3 mph 16.1 mph 91 % 0.00 in
15:59 48.1 °F 45.6 °F 29.67 in ENE 10.1 mph 17.3 mph 91 % 0.00 in
16:04 48.1 °F 45.9 °F 29.69 in ENE 9.5 mph 13.8 mph 92 % 0.00 in
16:09 48.0 °F 45.5 °F 29.70 in ENE 6.9 mph 11.5 mph 91 % 0.00 in
16:14 47.9 °F 45.4 °F 29.70 in ENE 9.3 mph 13.8 mph 91 % 0.00 in
16:19 47.8 °F 45.6 °F 29.70 in NE 7.5 mph 11.5 mph 92 % 0.00 in
16:24 47.8 °F 45.6 °F 29.69 in ENE 6.0 mph 11.5 mph 92 % 0.00 in
16:34 47.8 °F 45.6 °F 29.70 in ENE 8.2 mph 12.7 mph 92 % 0.01 in
16:39 47.7 °F 45.5 °F 29.70 in ENE 9.8 mph 11.5 mph 92 % 0.02 in
16:45 47.6 °F 45.7 °F 29.70 in East 10.1 mph 14.0 mph 93 % 0.02 in
16:50 47.4 °F 45.5 °F 29.70 in NE 9.3 mph 11.5 mph 93 % 0.02 in
16:55 47.4 °F 45.5 °F 29.70 in ENE 11.6 mph 13.0 mph 93 % 0.02 in
17:00 47.4 °F 45.8 °F 29.68 in ENE 7.7 mph 11.5 mph 94 % 0.03 in
17:05 47.2 °F 45.3 °F 29.68 in ENE 6.4 mph 9.2 mph 93 % 0.03 in
17:10 47.1 °F 45.2 °F 29.69 in ENE 6.9 mph 11.0 mph 93 % 0.03 in
17:15 46.9 °F 45.0 °F 29.70 in ENE 6.2 mph 9.2 mph 93 % 0.03 in
17:20 46.9 °F 45.0 °F 29.71 in ENE 9.3 mph 12.7 mph 93 % 0.03 in
17:25 46.9 °F 45.0 °F 29.71 in ENE 8.7 mph 11.5 mph 93 % 0.03 in
17:30 46.9 °F 45.0 °F 29.71 in ENE 6.9 mph 9.2 mph 93 % 0.02 in
17:36 47.0 °F 45.1 °F 29.72 in East 6.2 mph 7.0 mph 93 % 0.02 in
17:41 47.1 °F 45.5 °F 29.72 in East 6.3 mph 10.4 mph 94 % 0.01 in
17:46 47.2 °F 45.3 °F 29.72 in ENE 5.9 mph 8.1 mph 93 % 0.01 in
17:51 47.4 °F 45.5 °F 29.72 in East 6.1 mph 9.2 mph 93 % 0.01 in
17:56 47.3 °F 45.1 °F 29.72 in ENE 7.7 mph 11.5 mph 92 % 0.01 in
18:01 47.3 °F 45.1 °F 29.72 in East 7.7 mph 11.0 mph 92 % 0.00 in
18:11 47.1 °F 44.9 °F 29.73 in ENE 7.4 mph 9.2 mph 92 % 0.00 in
18:16 46.9 °F 44.4 °F 29.74 in NE 8.5 mph 12.0 mph 91 % 0.00 in
18:21 46.8 °F 44.6 °F 29.74 in East 7.0 mph 10.4 mph 92 % 0.00 in
18:27 46.8 °F 44.3 °F 29.74 in ENE 8.0 mph 11.5 mph 91 % 0.00 in
18:32 46.7 °F 44.2 °F 29.74 in East 9.7 mph 11.5 mph 91 % 0.00 in
18:37 46.7 °F 44.2 °F 29.74 in ENE 9.6 mph 11.5 mph 91 % 0.00 in
18:42 46.6 °F 44.1 °F 29.75 in ENE 7.3 mph 10.4 mph 91 % 0.00 in
18:47 46.5 °F 44.0 °F 29.75 in NE 8.0 mph 12.7 mph 91 % 0.00 in
18:52 46.5 °F 44.0 °F 29.75 in NE 6.8 mph 10.0 mph 91 % 0.00 in
18:57 46.4 °F 43.9 °F 29.75 in ENE 9.3 mph 12.7 mph 91 % 0.00 in
19:02 46.4 °F 43.9 °F 29.75 in ENE 8.8 mph 12.7 mph 91 % 0.00 in
19:07 46.3 °F 43.8 °F 29.76 in ENE 7.4 mph 13.8 mph 91 % 0.00 in
19:12 46.3 °F 43.8 °F 29.76 in NE 7.9 mph 12.0 mph 91 % 0.00 in
19:18 46.3 °F 43.8 °F 29.77 in NE 9.3 mph 14.0 mph 91 % 0.00 in
19:23 46.2 °F 43.4 °F 29.77 in East 8.3 mph 13.8 mph 90 % 0.00 in
19:28 46.2 °F 43.4 °F 29.77 in East 10.9 mph 13.8 mph 90 % 0.00 in
19:33 46.1 °F 43.3 °F 29.77 in ENE 10.1 mph 16.1 mph 90 % 0.00 in
19:38 46.1 °F 43.3 °F 29.78 in ENE 8.5 mph 12.0 mph 90 % 0.00 in
19:43 46.1 °F 43.3 °F 29.78 in ENE 7.9 mph 11.5 mph 90 % 0.00 in
19:48 46.1 °F 43.3 °F 29.78 in ENE 6.9 mph 12.7 mph 90 % 0.00 in
19:58 46.0 °F 43.2 °F 29.79 in East 9.3 mph 11.5 mph 90 % 0.00 in
20:03 46.0 °F 43.5 °F 29.78 in NE 8.7 mph 11.5 mph 91 % 0.00 in
20:09 45.9 °F 43.4 °F 29.79 in ENE 10.1 mph 13.8 mph 91 % 0.00 in
20:14 45.8 °F 43.3 °F 29.79 in ENE 9.3 mph 11.5 mph 91 % 0.00 in
20:19 45.7 °F 43.2 °F 29.79 in ENE 7.5 mph 12.7 mph 91 % 0.00 in
20:24 45.7 °F 43.2 °F 29.80 in NE 7.8 mph 13.8 mph 91 % 0.00 in
20:29 45.6 °F 42.8 °F 29.80 in ENE 10.1 mph 11.5 mph 90 % 0.00 in
20:34 45.5 °F 43.0 °F 29.80 in East 8.9 mph 12.7 mph 91 % 0.00 in
20:39 45.5 °F 42.7 °F 29.81 in ENE 9.1 mph 12.7 mph 90 % 0.00 in
20:44 45.5 °F 42.7 °F 29.81 in ENE 3.3 mph 9.2 mph 90 % 0.00 in
20:49 45.5 °F 42.7 °F 29.81 in ENE 7.6 mph 12.7 mph 90 % 0.00 in
20:54 45.4 °F 42.6 °F 29.81 in ENE 8.9 mph 11.5 mph 90 % 0.00 in
21:00 45.4 °F 42.6 °F 29.81 in NE 9.6 mph 13.0 mph 90 % 0.00 in
21:05 45.4 °F 42.6 °F 29.82 in ENE 7.9 mph 11.5 mph 90 % 0.00 in
21:10 45.4 °F 42.6 °F 29.81 in NE 7.8 mph 12.7 mph 90 % 0.00 in
21:15 45.4 °F 42.6 °F 29.82 in ENE 7.3 mph 11.5 mph 90 % 0.00 in
21:20 45.4 °F 42.6 °F 29.82 in East 5.0 mph 11.5 mph 90 % 0.00 in
21:25 45.4 °F 42.6 °F 29.83 in ENE 4.1 mph 6.9 mph 90 % 0.00 in
21:30 45.4 °F 42.6 °F 29.83 in ENE 8.3 mph 10.4 mph 90 % 0.00 in
21:35 45.4 °F 42.3 °F 29.83 in ENE 8.0 mph 10.4 mph 89 % 0.00 in
21:45 45.5 °F 42.4 °F 29.84 in NE 7.4 mph 11.5 mph 89 % 0.00 in
21:51 45.5 °F 42.4 °F 29.84 in NE 6.1 mph 9.0 mph 89 % 0.00 in
21:56 45.5 °F 42.4 °F 29.84 in ENE 5.7 mph 10.4 mph 89 % 0.00 in
22:01 45.5 °F 42.4 °F 29.84 in East 6.8 mph 9.2 mph 89 % 0.00 in
22:06 45.5 °F 42.4 °F 29.84 in ENE 7.9 mph 11.5 mph 89 % 0.00 in
22:11 45.5 °F 42.2 °F 29.84 in ENE 7.6 mph 9.2 mph 88 % 0.00 in
22:16 45.4 °F 42.1 °F 29.85 in ENE 6.1 mph 10.4 mph 88 % 0.00 in
22:21 45.5 °F 42.2 °F 29.85 in NNE 6.7 mph 9.2 mph 88 % 0.00 in
22:26 45.4 °F 42.1 °F 29.85 in ENE 6.1 mph 10.0 mph 88 % 0.00 in
22:31 45.4 °F 42.1 °F 29.86 in ENE 6.5 mph 9.2 mph 88 % 0.00 in
22:36 45.5 °F 42.2 °F 29.85 in ENE 5.2 mph 7.0 mph 88 % 0.00 in
22:42 45.4 °F 42.1 °F 29.85 in East 6.1 mph 8.1 mph 88 % 0.00 in
22:47 45.4 °F 42.1 °F 29.85 in ENE 2.8 mph 11.5 mph 88 % 0.00 in
22:52 45.4 °F 42.1 °F 29.86 in ENE 4.9 mph 9.2 mph 88 % 0.00 in
22:57 45.4 °F 42.1 °F 29.86 in ENE 6.8 mph 9.2 mph 88 % 0.00 in
23:02 45.4 °F 42.1 °F 29.86 in NNE 6.3 mph 9.2 mph 88 % 0.00 in
23:07 45.4 °F 41.8 °F 29.86 in East 5.8 mph 11.5 mph 87 % 0.00 in
23:12 45.4 °F 41.8 °F 29.85 in NE 5.8 mph 11.5 mph 87 % 0.00 in
23:17 45.3 °F 41.4 °F 29.86 in ENE 5.3 mph 9.0 mph 86 % 0.00 in
23:22 45.3 °F 41.7 °F 29.86 in ENE 5.5 mph 10.4 mph 87 % 0.00 in
23:27 45.3 °F 41.7 °F 29.86 in ENE 7.0 mph 9.2 mph 87 % 0.00 in
23:33 45.3 °F 41.7 °F 29.85 in NE 5.2 mph 8.1 mph 87 % 0.00 in
23:38 45.2 °F 41.6 °F 29.85 in NE 5.3 mph 9.2 mph 87 % 0.00 in
23:43 45.2 °F 41.3 °F 29.86 in ENE 6.3 mph 9.2 mph 86 % 0.00 in
23:48 45.2 °F 41.6 °F 29.86 in ENE 5.1 mph 8.0 mph 87 % 0.00 in
23:53 45.2 °F 41.3 °F 29.86 in ENE 6.3 mph 11.5 mph 86 % 0.00 in
23:58 45.1 °F 41.5 °F 29.85 in ENE 5.0 mph 9.2 mph 87 % 0.00 in
Crab Meadow Weather
Compliments of Weather Underground - 3 mb

Script developed by  Jim McMurry - jmcmurry@mwt.net Adapted for the template by  Wim van der Kuil - Leuven-Template.eu

Astronomy: Mercury can get as hot as 800 degrees and can be as cold as 300 degrees below zero.